Other Surface Observations
Issued by NWS Tucson, AZ

Home | Current Version | Previous Version | Text Only | Print | Product List | Glossary On
Versions: 1 2 3 4 5 6 7 8 9 10 11 12 13 14 15 16 17 18 19 20 21 22 23 24 25 26 27 28 29 30 31 32 33 34 35 36 37 38 39 40 41 42 43 44 45 46 47 48 49 50
000
SXUS55 KTWC 051515
OSOTWC

WEATHER ROUNDUP FOR SOUTHEAST ARIZONA
NATIONAL WEATHER SERVICE TUCSON AZ
815 AM MST THU MAR 05 2015

AZZ504>506-514-051615-
LOCATION       SKY/WX    TMP DP  RH WIND       PRES   REMARKS
TUCSON         SUNNY     43  35  73 CALM      30.27R
DAVIS-MONTHAN  SUNNY     45  35  67 SE3       30.25R
CHILDRENS PARK N/A       38  34  85 E1                PIMA CO DEQ
ALVERNON/22ND  N/A      N/A N/A N/A N/A               PIMA CO DEQ
CHERRY/GLENN   N/A      N/A N/A N/A N/A               PIMA CO DEQ
TANGERINE      N/A       47 N/A N/A NE7               PIMA CO DEQ
CONTL RANCH    N/A       43  37  78 S6                PIMA CO DEQ
GRANT/1ST      N/A       40  36  84 SW1               PIMA CO DEQ
CRAYCROFT/22ND N/A      N/A N/A N/A N/A               PIMA CO DEQ
GOLFLINKS/KOLB N/A       42  34  74 SE4               PIMA CO DEQ
AJO/12TH       N/A       38  34  85 S6                PIMA CO DEQ
SAGUARO EAST   N/A      N/A N/A N/A N/A               PIMA CO DEQ
FAIRGROUNDS    N/A       40 N/A N/A E9                PIMA CO DEQ
SAGUARO        N/A       36  28  73 N4                *SABINO CYN
SAN CARLOS     N/A       38  21  49 NW3               *SAN CARLOS
GREEN VALLEY   N/A       36  31  81 S3                PIMA CO DEQ
HORSE CAMP CYN N/A       38  20  47 E10G13            *ARAVAIPA CYN
RINCON MTNS    N/A       30  12  46 E10G18            *NR MANNING CAMP
$$

AZZ509>511-051615-
LOCATION       SKY/WX    TMP DP  RH WIND       PRES   REMARKS
SAFFORD        SUNNY     42  27  55 SE12      30.34R
STRAY HORSE    N/A       27 -22  10 E3G11             *
TRAIL CABIN    N/A       34   9  34 E5                *N OF GRANVILLE
BLACK HILLS    N/A       42  23  47 SE8G11            *N OF FT THOMAS
DRY LAKE       N/A       32   1  26 SE6G10            *NATANES MTNS
NOON CREEK     NOT AVBL
COLUMBINE      N/A       11   6  80 CALM              *PINALENO MTNS
GUTHRIE        N/A       31  15  52 E10G16            *SW OF GUTHRIE
$$

AZZ502-503-513-051615-
LOCATION       SKY/WX    TMP DP  RH WIND       PRES   REMARKS
NOGALES        SUNNY     40  32  73 CALM      30.24R
SELLS          N/A       47  33  57 NE7               *
SASABE         N/A       30  28  91 S3                *ALTAR VLY
HOPKINS        N/A       34  18  52 E11G25            *SANTA RITA MTNS
CARR CYN       N/A       32  25  76 SW3               *W OF HEREFORD
$$

AZZ507-508-512-051615-
LOCATION       SKY/WX    TMP DP  RH WIND       PRES   REMARKS
SIERRA VISTA   SUNNY     43  30  61 CALM      30.28R
DOUGLAS        SUNNY     38  32  79 NW5       30.29R WCI  34
EMPIRE MTNS    N/A       37  30  77 W3                *LAS CIENEGAS NCA
MULESHOE RANCH N/A       45  15  30 E11G19            *PRESERVE
HEADQUARTERS   N/A       38  20  47 E10G25            *CHIRICAHUA MTNS
$$

.............................NOTES.............................
THIS IS AN AUTOMATED COLLECTIVE WITH MINIMAL QUALITY CONTROL.
PIMA CO DEQ SITES HAVE NONSTANDARD WIND SENSOR HEIGHTS.
PIMA CO DEQ SITES DO NOT REPORT WIND GUSTS.
* INDICATES WIND SENSORS LOCATED AT 20 FEET INSTEAD OF 33 FEET.
..............................KEY..............................
SKY/WX - SKY CONDITION/WEATHER
TMP    - TEMPERATURE IN FAHRENHEIT
DP     - DEWPOINT IN FAHRENHEIT
RH     - RELATIVE HUMIDITY IN PERCENT
WIND   - DIRECTION AND SPEED IN MILES PER HOUR (MPH)
VRB    - VARIABLE WIND DIRECTION
PRES   - MEAN SEA LEVEL PRESSURE IN INCHES OF MERCURY
         F - FALLING PRESSURE   R - RISING PRESSURE
         S - STEADY PRESSURE
VSB    - VISIBILITY IN MILES
HX     - HEAT INDEX IN FAHRENHEIT
WCI    - WIND CHILL INDEX IN FAHRENHEIT
N/A    - NOT AVAILABLE
AFB    - AIR FORCE BASE
         DAVIS-MONTHAN IS DAVIS-MONTHAN AIR FORCE BASE
CYN    - CANYON
MTNS   - MOUNTAINS
NCA    - NATIONAL CONSERVATION AREA
NR     - NEAR
VLY    - VALLEY
CONTL  - CONTINENTAL
PIMA CO DEQ - PIMA COUNTY DEPT OF ENVIRONMENTAL QUALITY



USA.gov is the U.S. government's official web portal to all federal, state and local government web resources and services.